"Pseudo-MPEC" for CARKGQ2

Created 2024 Sep 7 19:22:06 UT using Find_Orb

Click here for an explanation of pseudo-MPECs

 
 Astrometry: 
     CARKGQ2*1C2024 09 07.18730422 14 39.000+15 32 48.00   ~975q 19.28GVNEOCPG96
     CARKGQ2 1C2024 09 07.19257922 14 29.080+15 36 14.70   ~975q 19.37GVNEOCPG96
     CARKGQ2 1C2024 09 07.19785122 14 19.340+15 39 37.40   ~975qx      VNEOCPG96
     CARKGQ2 1C2024 09 07.20311722 14 09.200+15 43 05.50   ~975q       VNEOCPG96
     CARKGQ2 KC2024 09 07.22765322 13 22.890+15 58 59.81   ~9767 20.68GVNEOCPI52
     CARKGQ2 KC2024 09 07.22805122 13 22.148+15 59 15.11   ~9767 20.26GVNEOCPI52
     CARKGQ2 KC2024 09 07.22844222 13 21.400+15 59 30.55   ~9767 19.52GVNEOCPI52
     CARKGQ2 KC2024 09 07.22883722 13 20.665+15 59 45.56   ~9767 19.50GVNEOCPI52
     CARKGQ2  C2024 09 07.25728022 12 24.987+16 17 44.91   ~976q 19.9 GVNEOCPH01
     CARKGQ2  C2024 09 07.26308922 12 14.048+16 21 25.61   ~976q 19.4 GVNEOCPH01
     CARKGQ2  C2024 09 07.27453822 11 52.559+16 28 39.39   ~976q 20.0 GVNEOCPH01
     CARKGQ2  C2024 09 07.27877322 11 44.606+16 31 19.23   ~976q 19.6 GVNEOCPH01
     CARKGQ2 KC2024 09 07.31639822 10 36.167+16 55 02.60   ~977q 19.45GVNEOCPI52
     CARKGQ2 KC2024 09 07.31698422 10 35.087+16 55 24.56   ~977q 20.11GVNEOCPI52
     CARKGQ2 KC2024 09 07.31756722 10 33.974+16 55 45.80   ~977q 19.85GVNEOCPI52
     CARKGQ2 KC2024 09 07.31815022 10 32.912+16 56 07.98   ~977q 19.48GVNEOCPI52
     CARKGQ2 1C2024 09 07.79093 21 58 22.27 +21 26 14.2    ~97JM 20.3 VXNEOCP033
     CARKGQ2 1C2024 09 07.79149 21 58 21.34 +21 26 31.8    ~97JM 20.8 VXNEOCP033
     CARKGQ2 1C2024 09 07.79204 21 58 20.44 +21 26 49.8    ~97JM 20.5 VXNEOCP033

Station data:
(033) Karl Schwarzschild Observatory, Tautenburg  (N50.980139 E11.711240)
   Germany.  Observer B. Stecklum. 1.34-m f/3 Schmidt + CCD.
(G96) Mt. Lemmon Survey  (N32.442729 W110.788720)  US/Arizona.  Observer E.
   J. Christensen. 1.5-m reflector + 10K CCD.
(H01) Magdalena Ridge Observatory, Socorro  (N33.984833 W107.189333)  US/New
   Mexico.  Observers W. H. Ryan, E. V. Ryan. Measurer W. H. Ryan. 2.4-m
   f/8.9 reflector + CCD.
(I52) Steward Observatory, Mt. Lemmon Station  (N32.442570 W110.788920)
   US/Arizona.  Observers T. A. Pruyne, B. M. Africano, E. J. Christensen, G.
   A. Farneth, D. C. Fuls, A. R. Gibbs, A. D. Grauer, H. Gröller, J. A.
   Johnson, R. A. Kowalski, S. M. Larson, G. J. Leonard, D. Rankin, R. L.
   Seaman, F. C. Shelly, K. W. Wierzchoś. 1.0-m prime focus + CCD.

Orbital elements:  CARKGQ2
   Perihelion 2024 May 30.47217 +/- 0.416 TT = 11:19:55 (JD 2460460.97217)
Epoch 2024 Sep  7.0 TT = JDT 2460560.5   Earth MOID: 0.0140      AutoNEOCP
M  95.14896024 +/- 0.41             (J2000 ecliptic)
n   0.95600356 +/- 0.000196         Peri.  263.97935 +/- 0.39
a   1.02053923 +/- 0.00014          Node   343.18210 +/- 0.0008
e   0.0195827 +/- 0.000223          Incl.   14.60079 +/- 0.023
P   1.031/376.561d         H 27.73  G  0.15   U  7.0
q 1.00055430 +/- 0.000145    Q 1.04052417 +/- 0.000352
18 of 19 observations 2024 Sept. 7 (14.5 hr); mean residual 0".31
Residuals in arcseconds: 
240907 G96  .12-  .61+    240907 I52  .28+  .07-    240907 I52  .21-  .42-    
240907 G96  .07+  .25+    240907 H01  .11-  .57+    240907 I52  .08+  .13+    
240907 G96( 2.9+  3.6-)   240907 H01  .23-  .26+    240907 033  .18+  .38+    
240907 G96  .12-  1.3-    240907 H01  .03+  .10+    240907 033  .06-  .24-    
240907 I52  .11+  .08-    240907 H01  .14-  .01-    240907 033  .12-  .14-    
240907 I52  .25+  .16-    240907 I52  .10+  .21-    
240907 I52  .12+  .18+    240907 I52  .22+  .01-    

Ephemerides (geocentric):
Date (UTC) HH   RA             Dec           delta  r     elong  mag " sig PA
---- --------  ------------   ------------  ------ ------ -----  --- --------
2024 09 07 19  21 58 05.332   +21 31 08.87  .01811 1.0230 148.0 20.4 .478 147
2024 09 07 20  21 57 01.856   +21 53 09.65  .01822 1.0230 147.6 20.4 .607 146
2024 09 07 21  21 55 58.874   +22 14 52.02  .01834 1.0230 147.1 20.5 .748 146
2024 09 07 22  21 54 56.382   +22 36 16.16  .01846 1.0230 146.7 20.5 .902 146
2024 09 07 23  21 53 54.379   +22 57 22.27  .01858 1.0230 146.3 20.5 1.07 145
2024 09 08 00  21 52 52.861   +23 18 10.56  .01870 1.0230 145.9 20.5 1.24 145
2024 09 08 01  21 51 51.826   +23 38 41.23  .01882 1.0231 145.4 20.6 1.43 145
2024 09 08 02  21 50 51.269   +23 58 54.49  .01894 1.0231 145.0 20.6 1.62 145
2024 09 08 03  21 49 51.189   +24 18 50.54  .01906 1.0231 144.6 20.6 1.83 145
2024 09 08 04  21 48 51.582   +24 38 29.60  .01919 1.0231 144.2 20.6 2.04 145
2024 09 08 05  21 47 52.445   +24 57 51.87  .01931 1.0231 143.8 20.7 2.26 145
2024 09 08 06  21 46 53.775   +25 16 57.58  .01944 1.0231 143.4 20.7 2.49 145
2024 09 08 07  21 45 55.569   +25 35 46.94  .01957 1.0231 143.0 20.7 2.73 144
2024 09 08 08  21 44 57.823   +25 54 20.16  .01969 1.0232 142.6 20.7 2.97 144
2024 09 08 09  21 44 00.535   +26 12 37.45  .01982 1.0232 142.3 20.8 3.22 144
2024 09 08 10  21 43 03.701   +26 30 39.05  .01995 1.0232 141.9 20.8 3.48 144
2024 09 08 11  21 42 07.318   +26 48 25.15  .02008 1.0232 141.5 20.8 3.74 144
2024 09 08 12  21 41 11.383   +27 05 55.98  .02021 1.0232 141.2 20.8 4.01 144
2024 09 08 13  21 40 15.892   +27 23 11.76  .02034 1.0232 140.8 20.9 4.29 144
2024 09 08 14  21 39 20.843   +27 40 12.69  .02048 1.0232 140.4 20.9 4.57 144
2024 09 08 15  21 38 26.232   +27 56 58.99  .02061 1.0233 140.1 20.9 4.85 144
2024 09 08 16  21 37 32.056   +28 13 30.87  .02074 1.0233 139.7 20.9 5.14 144
2024 09 08 17  21 36 38.311   +28 29 48.55  .02088 1.0233 139.4 21.0 5.43 144
2024 09 08 18  21 35 44.995   +28 45 52.23  .02102 1.0233 139.1 21.0 5.72 143
2024 09 08 19  21 34 52.104   +29 01 42.13  .02115 1.0233 138.7 21.0 6.02 143
2024 09 08 20  21 33 59.634   +29 17 18.44  .02129 1.0233 138.4 21.0 6.32 143
2024 09 08 21  21 33 07.583   +29 32 41.39  .02143 1.0233 138.1 21.0 6.63 143
2024 09 08 22  21 32 15.948   +29 47 51.16  .02156 1.0233 137.8 21.1 6.94 143
2024 09 08 23  21 31 24.724   +30 02 47.97  .02170 1.0234 137.4 21.1 7.25 143
2024 09 09 00  21 30 33.909   +30 17 32.01  .02184 1.0234 137.1 21.1 7.56 143
2024 09 09 01  21 29 43.499   +30 32 03.48  .02198 1.0234 136.8 21.1 7.87 143
2024 09 09 02  21 28 53.491   +30 46 22.58  .02212 1.0234 136.5 21.2 8.19 143
2024 09 09 03  21 28 03.883   +31 00 29.50  .02227 1.0234 136.2 21.2 8.51 143
2024 09 09 04  21 27 14.670   +31 14 24.43  .02241 1.0234 135.9 21.2 8.83 142
2024 09 09 05  21 26 25.849   +31 28 07.56  .02255 1.0234 135.6 21.2 9.15 142
2024 09 09 06  21 25 37.418   +31 41 39.08  .02269 1.0235 135.3 21.2 9.47 142
2024 09 09 07  21 24 49.373   +31 54 59.17  .02284 1.0235 135.0 21.3 9.79 142
2024 09 09 08  21 24 01.710   +32 08 08.02  .02298 1.0235 134.8 21.3 10.1 142
2024 09 09 09  21 23 14.427   +32 21 05.80  .02313 1.0235 134.5 21.3 10.4 142
2024 09 09 10  21 22 27.521   +32 33 52.70  .02327 1.0235 134.2 21.3 10.8 142
2024 09 09 11  21 21 40.987   +32 46 28.89  .02342 1.0235 133.9 21.4 11.1 142
2024 09 09 12  21 20 54.824   +32 58 54.53  .02356 1.0235 133.7 21.4 11.4 142
2024 09 09 13  21 20 09.028   +33 11 09.81  .02371 1.0236 133.4 21.4 11.7 142
2024 09 09 14  21 19 23.595   +33 23 14.89  .02386 1.0236 133.1 21.4 12.1 141
2024 09 09 15  21 18 38.523   +33 35 09.93  .02400 1.0236 132.9 21.4 12.4 141
2024 09 09 16  21 17 53.809   +33 46 55.10  .02415 1.0236 132.6 21.5 12.7 141
2024 09 09 17  21 17 09.449   +33 58 30.56  .02430 1.0236 132.4 21.5 13.0 141
2024 09 09 18  21 16 25.440   +34 09 56.47  .02445 1.0236 132.1 21.5 13.4 141